Location: Kaltenbach
(49.2000°N, 7.7500°E)
Time: 18:44:31
(UTC+00:00)

STARLINK-1072 - Pass Details

Date: 24 January 2020
Orbit: 349 x 350 km, 53.0° (Epoch: 16 February)

Event Time Altitude Azimuth Distance (km) Brightness Sun altitude
Rises 17:11:27 0° 272° (W) 2,161 8.2 -9.8°
Reaches altitude 10° 17:13:32 10° 281° (W) 1,320 6.6 -10.1°
Maximum altitude 17:16:20 39° 353° (N) 545 3.5 -10.5°
Enters shadow 17:18:13 17° 56° (ENE) 979 4.3 -10.8°
